Date String (YYYY-MM-DD hh:mm:ss) UTC,Instrument flags,absolute air pressure of the measurement (hPa),sample flow rate (lpm),inlet stack bypass flow (lpm),air temperature of the measurement (°C),ambient temperature measured by the external sensor (°C),aerosol sample conditioner tube jacket temperature (°C),OPC LED temperature (°C),internal box temperature (°C),relative humidity of the measurement (%),span deviation,mass concentration of particles derived from Lorenz-Mie calculation of OPC scattering (μg/m³),mass concentration of particles derived from Lorenz-Mie calculation of OPC scattering (μg/m³),mass concentration of particles derived from Lorenz-Mie calculation of OPC scattering (μg/m³)
DateTimeUTC,F1_M11,P_M11,Q1_M11,Q2_M11,T1_M11,T2_M11,T3_M11,T4_M11,T5_M11,U1_M11,ZSPAN_M11,X0_M11,X2_M11,X1_M11
2023-09-25 16:00:00,SystemResetWarning,0837.0,5.00,000.00,028.4,025.8,000.0,036.8,029.8,14.2,0000.0,0011.79,0003.79,0003.24
2023-09-25 16:01:00,SystemResetWarning,0837.0,5.00,000.00,028.4,026.1,000.0,036.8,029.9,14.4,0000.0,0010.98,0003.76,0003.24
2023-09-25 16:02:00,SystemResetWarning,0837.0,5.01,000.00,028.4,026.4,000.0,036.8,029.9,14.7,0000.0,0010.78,0003.81,0003.25
2023-09-25 16:03:00,SystemResetWarning,0837.0,5.00,000.00,028.4,026.6,000.0,036.8,030.0,14.3,0000.0,0011.44,0003.83,0003.24
2023-09-25 16:04:00,SystemResetWarning,0836.9,5.00,000.00,028.4,026.8,000.0,036.8,030.0,14.2,0000.0,0011.38,0003.81,0003.24
2023-09-25 16:05:00,SystemResetWarning,0836.9,5.00,000.00,028.5,027.0,000.0,036.8,030.0,14.0,0000.8,0010.76,0003.83,0003.24
2023-09-25 16:06:00,SystemResetWarning,0836.9,5.00,000.00,028.5,027.1,000.0,036.8,030.1,14.1,0001.1,0011.42,0003.83,0003.23
2023-09-25 16:07:00,SystemResetWarning,0836.9,5.00,000.00,028.5,027.2,000.0,036.8,030.2,14.2,0000.0,0011.35,0003.83,0003.22
2023-09-25 16:08:00,SystemResetWarning,0837.0,4.99,000.00,028.6,027.3,000.0,036.8,030.2,14.6,0000.0,0010.93,0003.80,0003.21
2023-09-25 16:09:00,SystemResetWarning,0836.9,5.00,000.00,028.6,027.4,000.0,036.8,030.2,14.1,0000.0,0010.89,0003.79,0003.22
2023-09-25 16:10:00,SystemResetWarning,0837.0,5.00,000.00,028.6,027.5,000.0,036.8,030.3,14.3,0000.0,0011.82,0003.80,0003.21
2023-09-25 16:11:00,SystemResetWarning,0837.0,5.00,000.00,028.6,027.5,000.0,036.8,030.3,13.9,0000.0,0012.31,0003.81,0003.23
2023-09-25 16:12:00,SystemResetWarning,0837.0,5.00,000.00,028.7,027.6,000.0,036.9,030.4,14.2,0000.0,0012.79,0003.81,0003.23
2023-09-25 16:13:00,SystemResetWarning,0837.0,5.00,000.00,028.7,027.6,000.0,036.9,030.4,14.0,0000.0,0012.80,0003.79,0003.22
2023-09-25 16:14:00,SystemResetWarning,0836.9,4.99,000.00,028.7,027.7,000.0,036.9,030.5,14.0,0000.0,0012.43,0003.76,0003.23
2023-09-25 16:15:00,SystemResetWarning,0837.0,4.99,000.00,028.8,027.1,000.0,036.9,030.3,13.8,0000.0,0012.91,0003.77,0003.23
2023-09-25 16:16:00,SystemResetWarning,0836.9,5.01,000.00,028.6,025.5,000.0,036.9,029.9,13.7,0000.0,0012.92,0003.76,0003.24
2023-09-25 16:17:00,SystemResetWarning,0836.9,5.01,000.00,028.6,024.8,000.0,036.8,029.9,13.6,0000.0,0012.10,0003.75,0003.24
2023-09-25 16:18:00,SystemResetWarning,0837.0,5.01,000.00,028.5,025.0,000.0,036.8,029.7,13.6,0000.0,0011.81,0003.76,0003.24
2023-09-25 16:19:00,SystemResetWarning,0837.0,4.99,000.00,028.4,025.3,000.0,036.8,029.7,14.0,0000.0,0012.01,0003.79,0003.26
2023-09-25 16:20:00,SystemResetWarning,0837.0,5.00,000.00,028.4,025.7,000.0,036.8,029.8,14.0,0000.0,0012.60,0003.82,0003.26
2023-09-25 16:21:00,SystemResetWarning,0837.0,5.00,000.00,028.4,026.0,000.0,036.8,029.8,13.8,0000.0,0011.66,0003.81,0003.25
2023-09-25 16:22:00,SystemResetWarning,0836.9,5.00,000.00,028.4,026.3,000.0,036.8,029.9,14.0,0000.0,0011.07,0003.79,0003.23
2023-09-25 16:23:00,SystemResetWarning,0837.0,5.00,000.00,028.4,026.5,000.0,036.8,030.0,13.7,0000.0,0010.78,0003.78,0003.22
2023-09-25 16:24:00,SystemResetWarning,0836.9,5.00,000.00,028.4,026.7,000.0,036.8,030.0,13.6,0000.0,0010.50,0003.76,0003.21
2023-09-25 16:25:00,SystemResetWarning,0836.9,5.00,000.00,028.5,026.9,000.0,036.8,030.1,13.5,0000.0,0010.44,0003.79,0003.20
2023-09-25 16:26:00,SystemResetWarning,0836.9,5.00,000.00,028.5,027.1,000.0,036.8,030.1,13.3,0000.0,0010.00,0003.75,0003.20
2023-09-25 16:27:00,SystemResetWarning,0837.0,5.00,000.00,028.5,027.2,000.0,036.8,030.2,13.4,0000.0,0009.95,0003.75,0003.19
2023-09-25 16:28:00,SystemResetWarning,0837.0,5.00,000.00,028.5,027.3,000.0,036.8,030.2,13.5,0000.0,0010.37,0003.76,0003.19
2023-09-25 16:29:00,SystemResetWarning,0837.0,5.00,000.00,028.6,027.4,000.0,036.8,030.3,13.3,0000.0,0010.30,0003.76,0003.20
2023-09-25 16:30:00,SystemResetWarning,0836.9,5.00,000.00,028.6,027.5,000.0,036.8,030.3,13.1,0000.0,0010.14,0003.73,0003.19
2023-09-25 16:31:00,SystemResetWarning,0836.9,5.00,000.00,028.6,027.6,000.0,036.9,030.3,13.0,0000.0,0009.04,0003.72,0003.19
2023-09-25 16:32:00,SystemResetWarning,0836.9,4.99,000.00,028.7,027.1,000.0,036.8,030.3,13.0,0000.0,0009.82,0003.76,0003.19
2023-09-25 16:33:00,SystemResetWarning,0837.0,5.00,000.00,028.6,025.4,000.0,036.8,030.0,12.8,0000.0,0009.86,0003.77,0003.21
2023-09-25 16:34:00,SystemResetWarning,0837.0,5.00,000.00,028.5,024.7,000.0,036.7,029.8,13.1,0000.0,0009.73,0003.77,0003.21
2023-09-25 16:35:00,SystemResetWarning,0837.0,5.01,000.00,028.4,024.9,000.0,036.7,029.7,13.6,0000.0,0010.13,0003.80,0003.21
2023-09-25 16:36:00,SystemResetWarning,0837.0,5.00,000.00,028.3,025.2,000.0,036.7,029.7,13.1,0000.0,0010.04,0003.80,0003.22
2023-09-25 16:37:00,SystemResetWarning,0837.0,4.99,000.00,028.3,025.6,000.0,036.7,029.7,12.7,0000.0,0009.92,0003.81,0003.22
2023-09-25 16:38:00,SystemResetWarning,0837.0,5.00,000.00,028.3,025.9,000.0,036.7,029.8,12.7,0000.0,0009.75,0003.83,0003.23
2023-09-25 16:39:00,SystemResetWarning,0837.0,5.00,000.00,028.3,026.2,000.0,036.7,029.8,13.2,0000.0,0009.29,0003.83,0003.23
2023-09-25 16:40:00,SystemResetWarning,0836.9,5.00,000.00,028.3,026.5,000.0,036.7,029.9,13.7,0000.0,0008.61,0003.80,0003.22
2023-09-25 16:41:00,SystemResetWarning,0836.9,5.00,000.00,028.4,026.7,000.0,036.7,029.9,13.7,0000.0,0008.64,0003.81,0003.21
2023-09-25 16:42:00,SystemResetWarning,0836.9,5.00,000.00,028.4,026.9,000.0,036.7,030.0,13.8,0000.0,0008.62,0003.81,0003.22
2023-09-25 16:43:00,SystemResetWarning,0836.9,5.00,000.00,028.4,027.1,000.0,036.7,030.1,13.8,0000.0,0007.75,0003.75,0003.21
2023-09-25 16:44:00,SystemResetWarning,0836.9,5.00,000.00,028.5,027.2,000.0,036.7,030.1,13.5,0000.0,0007.76,0003.73,0003.21
2023-09-25 16:45:00,SystemResetWarning,0836.9,5.00,000.00,028.5,027.4,000.0,036.8,030.2,13.3,0000.0,0008.57,0003.73,0003.21
2023-09-25 16:46:00,SystemResetWarning,0837.0,5.00,000.00,028.5,027.5,000.0,036.8,030.2,13.3,0000.5,0008.31,0003.71,0003.21
2023-09-25 16:47:00,SystemResetWarning,0836.9,4.99,000.00,028.6,026.9,000.0,036.8,030.1,13.0,0000.0,0009.38,0003.71,0003.21
2023-09-25 16:48:00,SystemResetWarning,0837.0,5.01,000.00,028.5,025.2,000.0,036.7,029.8,13.3,0000.0,0009.68,0003.70,0003.21
2023-09-25 16:49:00,SystemResetWarning,0837.0,5.01,000.00,028.4,024.6,000.0,036.6,029.7,13.4,0000.0,0009.83,0003.70,0003.22
2023-09-25 16:50:00,SystemResetWarning,0837.0,5.01,000.00,028.3,024.9,000.0,036.6,029.6,13.2,0000.0,0009.78,0003.67,0003.22
2023-09-25 16:51:00,SystemResetWarning,0837.0,4.99,000.00,028.2,025.2,000.0,036.6,029.6,13.1,0000.0,0009.88,0003.71,0003.23
2023-09-25 16:52:00,SystemResetWarning,0836.9,4.99,000.00,028.2,025.5,000.0,036.6,029.6,13.0,0000.0,0009.93,0003.73,0003.24
2023-09-25 16:53:00,SystemResetWarning,0836.9,5.00,000.00,028.2,025.9,000.0,036.6,029.7,13.1,0000.0,0010.12,0003.75,0003.25
2023-09-25 16:54:00,SystemResetWarning,0836.9,5.01,000.00,028.2,026.2,000.0,036.6,029.8,13.1,0000.0,0010.36,0003.80,0003.26
2023-09-25 16:55:00,SystemResetWarning,0836.9,4.99,000.00,028.3,026.5,000.0,036.6,029.8,12.9,0000.0,0010.27,0003.84,0003.27
2023-09-25 16:56:00,SystemResetWarning,0836.9,4.99,000.00,028.3,026.7,000.0,036.7,029.9,12.8,0000.0,0009.60,0003.85,0003.28
2023-09-25 16:57:00,SystemResetWarning,0836.9,5.00,000.00,028.3,026.9,000.0,036.7,030.0,12.6,0000.0,0009.53,0003.87,0003.30
2023-09-25 16:58:00,SystemResetWarning,0837.0,5.00,000.00,028.4,027.0,000.0,036.7,030.0,13.3,0000.0,0008.44,0003.86,0003.30
2023-09-25 16:59:00,SystemResetWarning,0836.9,5.00,000.00,028.4,027.2,000.0,036.7,030.1,13.1,0000.0,0008.63,0003.86,0003.30
